CW3081 Weather Reports


Display with metric or nautical units.
time (UTC)temp
F
wind
direction
speed
MPH
gust
MPH
rain 1hr
in
rain 24hr
in
rain mn
in
humidity
%
barometer
mb
20260905071550 73 0 0.0 0.0 0.00 0.00 0.00 94 1014.2
20260905070106 73 0 0.0 0.0 0.00 0.00 0.00 93 1014.1
20260905064556 74 0 0.0 0.0 0.00 0.00 0.00 93 1014.1
20260905063052 74 0 0.0 0.0 0.00 0.00 0.00 92 1014.0
20260905061600 74 0 0.0 0.0 0.00 0.00 0.00 93 1014.0
20260905060051 74 0 0.0 0.0 0.00 0.00 0.00 93 1013.9
20260905054603 74 0 0.0 0.0 0.00 0.00 0.00 92 1014.0
20260905053052 74 0 0.0 0.0 0.00 0.00 0.00 92 1014.1
20260905051551 74 0 0.0 0.0 0.00 0.00 0.00 92 1014.2
20260905050051 74 0 0.0 0.0 0.00 0.00 0.00 91 1014.1
20260905044557 75 0 0.0 0.0 0.00 0.00 0.00 90 1014.3
20260905043053 75 0 0.0 0.0 0.00 0.00 0.00 90 1014.4
20260905041556 76 0 0.0 0.0 0.00 0.00 0.00 89 1014.5
20260905040053 76 0 0.0 0.0 0.00 0.00 0.00 88 1014.6
20260905034556 76 0 0.0 0.0 0.00 0.00 0.00 87 1014.6
20260905033054 76 0 0.0 0.0 0.00 0.00 0.00 87 1014.6
20260905031551 77 0 0.0 0.0 0.00 0.00 0.00 86 1014.7
20260905030049 77 0 0.0 0.0 0.00 0.00 0.00 86 1014.9
20260905024600 77 0 0.0 0.0 0.00 0.00 0.00 84 1015.1
20260905023054 77 0 0.0 0.0 0.00 0.00 0.00 84 1015.0
20260905021550 78 0 0.0 0.0 0.00 0.00 0.00 83 1014.9
20260905014558 78 0 0.0 0.0 0.00 0.00 0.00 83 1015.0
20260905013055 78 0 0.0 0.0 0.00 0.00 0.00 82 1014.8
20260905011554 79 0 0.0 1.0 0.00 0.00 0.00 81 1014.7
20260905010104 80 0 0.0 0.0 0.00 0.00 0.00 80 1014.6
20260905004551 81 0 0.0 0.0 0.00 0.00 0.00 77 1014.3
20260905003055 82 0 0.0 0.0 0.00 0.00 0.00 76 1014.3
20260905001551 82 0 0.0 0.0 0.00 0.00 0.00 73 1014.2
20260904234600 86 0 0.0 0.0 0.00 0.00 0.00 66 1014.0
20260904233054 87 0 0.0 1.0 0.00 0.00 0.00 61 1014.0
20260904231551 88 139 0.0 2.0 0.00 0.00 0.00 60 1014.3
20260904230057 90 188 0.0 2.0 0.00 0.00 0.00 59 1014.4
20260904224605 92 0 0.0 2.0 0.00 0.00 0.00 60 1014.3
20260904223055 92 0 0.0 0.0 0.00 0.00 0.00 65 1013.9
20260904221600 92 0 0.0 0.0 0.00 0.00 0.00 63 1013.8
20260904220100 93 0 0.0 0.0 0.00 0.00 0.00 61 1013.6
20260904214558 93 0 0.0 1.0 0.00 0.00 0.00 61 1013.9
20260904213054 93 0 0.0 1.0 0.00 0.00 0.00 60 1013.9
20260904211558 94 0 0.0 1.0 0.00 0.00 0.00 61 1014.0
20260904210107 93 0 0.0 1.0 0.00 0.00 0.00 58 1014.0
20260904204601 94 0 0.0 1.0 0.00 0.00 0.00 61 1014.1
20260904203054 94 0 0.0 1.0 0.00 0.00 0.00 60 1014.4
20260904201610 94 83 0.0 3.0 0.00 0.00 0.00 58 1014.7
20260904200100 94 346 0.0 2.0 0.00 0.00 0.00 58 1014.9
20260904194605 94 0 0.0 1.0 0.00 0.00 0.00 58 1015.2
20260904193058 94 321 0.0 1.0 0.00 0.00 0.00 57 1015.3
20260904191551 94 0 0.0 1.0 0.00 0.00 0.00 60 1015.6
20260904184602 93 0 0.0 1.0 0.00 0.00 0.00 61 1016.0
20260904183100 95 264 0.0 2.0 0.00 0.00 0.00 55 1016.0
20260904181549 96 349 1.0 2.0 0.00 0.00 0.00 55 1016.2
20260904174602 94 0 0.0 1.0 0.00 0.00 0.00 60 1016.3
20260904173057 94 2 0.0 2.0 0.00 0.00 0.00 58 1016.5
20260904171558 93 0 0.0 1.0 0.00 0.00 0.00 64 1016.7
20260904170054 93 0 0.0 0.0 0.00 0.00 0.00 65 1017.0
20260904164600 92 0 0.0 1.0 0.00 0.00 0.00 70 1017.1
20260904163055 91 0 0.0 1.0 0.00 0.00 0.00 68 1017.2
20260904161551 90 0 0.0 1.0 0.00 0.00 0.00 73 1017.3
20260904160053 89 0 0.0 0.0 0.00 0.00 0.00 74 1017.3
20260904154600 88 0 0.0 0.0 0.00 0.00 0.00 75 1017.3
20260904153054 87 0 0.0 0.0 0.00 0.00 0.00 78 1017.3
20260904151551 86 0 0.0 0.0 0.00 0.00 0.00 79 1017.3
20260904150054 85 0 0.0 1.0 0.00 0.00 0.00 82 1017.3
20260904144601 84 0 0.0 0.0 0.00 0.00 0.00 84 1017.2
20260904143052 0 0.0 0.0 0.00 0.00 0.00 1017.1
20260904141605 0 0.0 0.0 0.00 0.00 0.00 1017.1
20260904140106 0 0.0 0.0 0.00 0.00 0.00 1017.1
20260904134605 0 0.0 0.0 0.00 0.00 0.00 1017.0
20260904133055 0 0.0 0.0 0.00 0.00 0.00 1017.1
20260904131558 0 0.0 0.0 0.00 0.00 0.00 1016.9
20260904130059 0 0.0 0.0 0.00 0.00 0.00 1016.7
20260904124559 0 0.0 0.0 0.00 0.00 0.00 1016.8
20260904123058 0 0.0 0.0 0.00 0.00 0.00 1016.5
20260904121552 0 0.0 0.0 0.00 0.00 0.00 1016.4
20260904120056 0 0.0 0.0 0.00 0.00 0.00 1016.3
20260904114559 0 0.0 0.0 0.00 0.00 0.00 1016.2
20260904113052 0 0.0 0.0 0.00 0.00 0.00 1015.9
20260904111553 0 0.0 0.0 0.00 0.00 0.00 1015.7
20260904110107 0 0.0 0.0 0.00 0.00 0.00 1015.7
20260904104549 0 0.0 0.0 0.00 0.00 0.00 1015.7
20260904103058 0 0.0 0.0 0.00 0.00 0.00 1015.7
20260904101552 0 0.0 0.0 0.00 0.00 0.00 1015.5
20260904100057 0 0.0 0.0 0.00 0.00 0.00 1015.5
20260904094601 0 0.0 0.0 0.00 0.00 0.00 1015.5
20260904093057 74 0 0.0 0.0 0.00 0.00 0.00 96 1015.5
20260904091552 74 0 0.0 0.0 0.00 0.00 0.00 96 1015.4
20260904084559 74 0 0.0 0.0 0.00 0.00 0.00 95 1015.4
20260904083054 74 0 0.0 0.0 0.00 0.00 0.00 96 1015.3
20260904081552 75 0 0.0 0.0 0.00 0.00 0.00 95 1015.2
20260904080051 75 0 0.0 0.0 0.00 0.00 0.00 95 1015.2
20260904074609 75 0 0.0 0.0 0.00 0.00 0.00 95 1015.3
20260904073058 75 0 0.0 0.0 0.00 0.00 0.00 95 1015.3